Regional Weather Roundup
Issued by NWS Cleveland, OH

Home | Current Version | Previous Version | Text Only | Print | Product List | Glossary Off
Versions: 1 2 3 4 5 6 7 8 9 10 11 12 13 14 15 16 17 18 19 20 21 22 23 24 25 26 27 28 29 30 31 32 33 34 35 36 37 38 39 40 41 42 43 44 45 46 47 48 49 50

000
ASUS41 KCLE 251900
RWRCLE
OHIO REGIONAL WEATHER ROUNDUP
NATIONAL WEATHER SERVICE WILMINGTON, OH
200 PM EST THU DEC 25 2014

NOTE: "FAIR" INDICATES FEW OR NO CLOUDS BELOW 12,000 FEET WITH NO
SIGNIFICANT WEATHER AND/OR OBSTRUCTIONS TO VISIBILITY.

OHZ001>008-015>018-024>027-034-035-043-044-252000-
   NORTHWEST OHIO

CITY           SKY/WX    TMP DP  RH WIND       PRES   REMARKS
DEFIANCE       CLOUDY    38  30  73 SW13G21   30.03R
FINDLAY        CLOUDY    39  31  72 SW18G29   30.02F
TOLEDO EXPRESS CLOUDY    37  29  72 W14       30.01R
TOLEDO METCALF CLOUDY    38  29  70 SW18      30.03R
LIMA           CLOUDY    39  30  70 SW17      30.04S
$$

OHZ009>014-019>023-028>033-038-089-252000-
   NORTHEAST OHIO

CITY           SKY/WX    TMP DP  RH WIND       PRES   REMARKS
CLE-HOPKINS    CLOUDY    40  31  70 SW17G25   30.03R
CLE-LAKEFRONT  CLOUDY    41  29  62 SW20G31   30.00R
CUY CO. ARPT   CLOUDY    43  30  61 W16G29    30.00R
LORAIN-ELYRIA  CLOUDY    39  31  72 W15       30.02R
ASHTABULA      CLOUDY    40  30  67 W17G25    29.98R
AKRON-CANTON   CLOUDY    39  29  67 SW15      30.02R
WOOSTER        NOT AVBL
MANSFIELD      CLOUDY    37  29  72 SW12G18   30.03R
YOUNGSTOWN     CLOUDY    39  30  70 W16G26    29.99R
$$

OHZ042-051>053-060>062-070>072-077>081-252000-
  SOUTHWEST OHIO

CITY           SKY/WX    TMP DP  RH WIND       PRES   REMARKS
CINC-COVINGTON CLOUDY    40  30  67 SW8       30.10F
CINC-LUNKEN    CLOUDY    41  33  73 SW15      30.12F
HAMILTON       CLOUDY    42  32  67 SW9G16    30.11F
DAYTON         NOT AVBL
WRIGHT-PAT AFB NOT AVBL
DAYTON GENERAL CLOUDY    39  31  72 SW10      30.07F
WILMINGTON     CLOUDY    39  31  72 SW14      30.09S
$$

OHZ036-037-039>041-045>050-054>059-063>069-073>076-082>088-252000-
  CENTRAL AND SOUTHEAST OHIO

CITY           SKY/WX    TMP DP  RH WIND       PRES   REMARKS
COLUMBUS       CLOUDY    39  30  70 SW12G22   30.08S
OSU AIRPORT    CLOUDY    40  30  67 SW8       30.07S
BOLTON FIELD   CLOUDY    39  32  75 SW12      30.08F
RICKENBACK AFB NOT AVBL
NEWARK         CLOUDY    40  31  70 SW13      30.08R
MARION         CLOUDY    38  29  70 W12G21    30.05S
LANCASTER      CLOUDY    41  33  73 SW10      30.09F
ZANESVILLE     CLOUDY    39  29  67 W13       30.08S
NEW PHILLY     CLOUDY    41  28  60 W14G26    30.07R
$$


USA.gov is the U.S. government's official web portal to all federal, state and local government web resources and services.